Del Norte, CO

12:38 PM MDT on August 26, 2016 (GMT -0600)
Wolf Creek Pass

Weather History for KCPW - April, 2013

Change the Weather History Date:

Thursday, April 25, 2013

  Actual Average (KALS) Record (KALS)
Temperature  
Mean Temperature 30 °F 45 °F  
Max Temperature 35 °F 62 °F 77 °F (1949)
Min Temperature 24 °F 27 °F 11 °F (1950)
Degree Days  
Heating Degree Days 36 20  
Month to date heating degree days 598  
Since 1 July heating degree days 7904  
Cooling Degree Days 0 0  
Month to date cooling degree days 0  
Year to date cooling degree days 0  
Moisture  
Dew Point 13 °F    
Average Humidity 55    
Maximum Humidity 100    
Minimum Humidity 27    
Precipitation  
Precipitation 0.08 in 0.02 in 0.30 in (1986)
Month to date precipitation 0.49  
Year to date precipitation 1.54  
Snow  
Snow 0.00 in 0.10 in 1.40 in (1948)
Month to date snowfall 3.2  
Since 1 July snowfall 26.3  
Snow Depth -    
Sea Level Pressure  
Sea Level Pressure 30.25 in    
Wind  
Wind Speed 13 mph (SW)    
Max Wind Speed 23 mph    
Max Gust Speed 40 mph    
Visibility 8 miles    
Events Fog , Snow    
T = Trace of Precipitation, MM = Missing Value Source: NWS Daily Summary

Daily Weather History Graph

Daily Weather History Graph

Search for Another Location

Airport or City:

Trip Planner

Search our weather history database for the weather conditions in past years. The results will help you decide how hot, cold, wet, or windy it might be!

Date:

Astronomy

Apr. 25, 2013 Rise Set
Actual Time 6:18 AM MDT 7:51 PM MDT
Civil Twilight 5:51 AM MDT 8:19 PM MDT
Nautical Twilight 5:18 AM MDT 8:52 PM MDT
Astronomical Twilight 4:42 AM MDT 9:28 PM MDT
Moon 8:07 PM MDT (4/25) 6:03 AM MDT (4/25)
Length of Visible Light 14h 28m
Length of Day
13h 33m
Full, 100% of the Moon is Illuminated
Apr 25
Full
Apr 25
Full
May 2
Last Quarter
May 9
New
May 17
First Quarter

Hourly Weather History & Observations

Time (MDT) Temp. Windchill Dew Point Humidity Pressure Visibility Wind Dir Wind Speed Gust Speed Precip Events Conditions
12:19 AM 28.4 °F 19.1 °F -0.4 °F 29% 30.30 in 10.0 mi SW 10.4 mph 17.3 mph N/A   Mostly Cloudy
12:39 AM 28.4 °F 19.1 °F -0.4 °F 29% 30.30 in 10.0 mi SW 10.4 mph - N/A   Mostly Cloudy
12:59 AM 26.6 °F 16.2 °F -0.4 °F 31% 30.30 in 10.0 mi SW 11.5 mph - N/A   Mostly Cloudy
1:19 AM 26.6 °F 15.2 °F -0.4 °F 31% 30.30 in 10.0 mi SW 13.8 mph 18.4 mph N/A   Mostly Cloudy
1:39 AM 26.6 °F 14.3 °F -0.4 °F 31% 30.29 in 10.0 mi SW 16.1 mph 20.7 mph N/A   Mostly Cloudy
1:59 AM 26.6 °F 15.2 °F -0.4 °F 31% 30.29 in 10.0 mi SW 13.8 mph 21.9 mph N/A   Overcast
2:19 AM 26.6 °F 14.3 °F -0.4 °F 31% 30.29 in 10.0 mi SW 16.1 mph 24.2 mph N/A   Mostly Cloudy
2:39 AM 26.6 °F 15.2 °F -0.4 °F 31% 30.28 in 10.0 mi SW 13.8 mph 24.2 mph N/A   Mostly Cloudy
2:59 AM 26.6 °F 13.4 °F -0.4 °F 31% 30.27 in 10.0 mi SW 18.4 mph 23.0 mph N/A   Mostly Cloudy
3:19 AM 26.6 °F 16.8 °F -0.4 °F 31% 30.27 in 10.0 mi SW 10.4 mph 21.9 mph N/A   Overcast
3:39 AM 26.6 °F 15.2 °F -0.4 °F 31% 30.27 in 10.0 mi SW 13.8 mph 20.7 mph N/A   Overcast
3:59 AM 26.6 °F 14.7 °F -0.4 °F 31% 30.27 in 10.0 mi SW 15.0 mph 21.9 mph N/A   Overcast
4:19 AM 28.4 °F 18.5 °F -0.4 °F 29% 30.27 in 10.0 mi SW 11.5 mph 20.7 mph N/A   Overcast
4:39 AM 28.4 °F 18.0 °F -0.4 °F 29% 30.27 in 10.0 mi SW 12.7 mph 17.3 mph N/A   Overcast
4:59 AM 28.4 °F 18.5 °F -0.4 °F 29% 30.27 in 10.0 mi SW 11.5 mph 20.7 mph N/A   Overcast
5:19 AM 28.4 °F 17.5 °F -0.4 °F 29% 30.27 in 10.0 mi SW 13.8 mph 23.0 mph N/A   Overcast
5:39 AM 26.6 °F 15.2 °F -2.2 °F 29% 30.26 in 10.0 mi SW 13.8 mph 23.0 mph N/A   Overcast
5:59 AM 26.6 °F 16.2 °F -2.2 °F 29% 30.26 in 10.0 mi SW 11.5 mph 18.4 mph N/A   Overcast
6:19 AM 26.6 °F 15.7 °F -2.2 °F 29% 30.27 in 10.0 mi SW 12.7 mph 21.9 mph N/A   Overcast
6:39 AM 28.4 °F 16.6 °F -0.4 °F 29% 30.26 in 10.0 mi SW 16.1 mph 24.2 mph N/A   Overcast
6:59 AM 28.4 °F 16.2 °F -2.2 °F 27% 30.26 in 10.0 mi SW 17.3 mph 23.0 mph N/A   Overcast
7:19 AM 28.4 °F 17.5 °F -2.2 °F 27% 30.27 in 10.0 mi SW 13.8 mph 23.0 mph N/A   Overcast
7:39 AM 28.4 °F 16.6 °F 5.0 °F 37% 30.27 in 10.0 mi SW 16.1 mph 23.0 mph N/A   Overcast
7:59 AM 28.4 °F 18.0 °F 6.8 °F 40% 30.28 in 10.0 mi SSW 12.7 mph 23.0 mph N/A   Overcast
8:19 AM 28.4 °F 16.6 °F 8.6 °F 43% 30.28 in 10.0 mi SSW 16.1 mph 23.0 mph N/A   Overcast
8:39 AM 28.4 °F 18.5 °F 8.6 °F 43% 30.29 in 10.0 mi SSW 11.5 mph 20.7 mph N/A   Overcast
8:59 AM 28.4 °F 18.0 °F 10.4 °F 47% 30.29 in 10.0 mi SW 12.7 mph 20.7 mph N/A   Overcast
9:19 AM 30.2 °F 22.6 °F 10.4 °F 44% 30.29 in 10.0 mi SW 8.1 mph 18.4 mph N/A   Overcast
9:39 AM 30.2 °F 18.9 °F 12.2 °F 47% 30.29 in 10.0 mi SW 16.1 mph 21.9 mph N/A   Overcast
9:59 AM 30.2 °F 19.8 °F 14.0 °F 51% 30.29 in 10.0 mi SW 13.8 mph 20.7 mph N/A   Overcast
10:19 AM 30.2 °F 19.3 °F 14.0 °F 51% 30.29 in 10.0 mi SW 15.0 mph 24.2 mph N/A   Overcast
10:39 AM 30.2 °F 18.1 °F 14.0 °F 51% 30.29 in 10.0 mi SW 18.4 mph 24.2 mph N/A   Overcast
10:59 AM 32.0 °F 20.1 °F 15.8 °F 51% 30.29 in 10.0 mi SSW 19.6 mph 25.3 mph N/A   Overcast
11:19 AM 32.0 °F 21.2 °F 15.8 °F 51% 30.29 in 10.0 mi SW 16.1 mph 25.3 mph N/A   Overcast
11:39 AM 32.0 °F 19.8 °F 15.8 °F 51% 30.29 in 10.0 mi SW 20.7 mph 28.8 mph N/A   Overcast
11:59 AM 32.0 °F 21.2 °F 15.8 °F 51% 30.29 in 10.0 mi SW 16.1 mph 27.6 mph N/A   Overcast
12:19 PM 32.0 °F 20.5 °F 17.6 °F 55% 30.29 in 10.0 mi SW 18.4 mph 25.3 mph N/A   Overcast
12:39 PM 32.0 °F 21.2 °F 17.6 °F 55% 30.28 in 10.0 mi SW 16.1 mph 23.0 mph N/A   Overcast
12:59 PM 32.0 °F 22.5 °F 17.6 °F 55% 30.27 in 10.0 mi SSW 12.7 mph 24.2 mph N/A   Overcast
1:19 PM 32.0 °F 20.5 °F 17.6 °F 55% 30.26 in 10.0 mi SW 18.4 mph 26.5 mph N/A   Overcast
1:39 PM 33.8 °F 24.8 °F 15.8 °F 48% 30.25 in 10.0 mi SSW 12.7 mph 29.9 mph N/A   Overcast
1:59 PM 33.8 °F 24.3 °F 17.6 °F 52% 30.24 in 10.0 mi SW 13.8 mph 23.0 mph N/A   Overcast
2:19 PM 33.8 °F 26.4 °F 17.6 °F 52% 30.24 in 10.0 mi SW 9.2 mph 25.3 mph N/A   Overcast
2:39 PM 35.6 °F 25.2 °F 17.6 °F 48% 30.23 in 10.0 mi SW 18.4 mph 26.5 mph N/A   Overcast
2:59 PM 35.6 °F 25.2 °F 17.6 °F 48% 30.22 in 10.0 mi SSW 18.4 mph 29.9 mph N/A   Overcast
3:19 PM 35.6 °F 25.5 °F 15.8 °F 44% 30.20 in 10.0 mi SSW 17.3 mph 40.3 mph N/A   Mostly Cloudy
3:39 PM 35.6 °F 24.2 °F 17.6 °F 48% 30.19 in 10.0 mi WSW 21.9 mph 33.4 mph N/A   Mostly Cloudy
3:59 PM 35.6 °F 24.0 °F 17.6 °F 48% 30.17 in 10.0 mi SW 23.0 mph 40.3 mph N/A   Mostly Cloudy
4:19 PM 35.6 °F 24.0 °F 14.0 °F 41% 30.17 in 10.0 mi SW 23.0 mph 35.7 mph N/A   Mostly Cloudy
4:39 PM 35.6 °F 24.5 °F 14.0 °F 41% 30.17 in 10.0 mi SW 20.7 mph 33.4 mph N/A   Mostly Cloudy
4:59 PM 35.6 °F 26.2 °F 14.0 °F 41% 30.16 in 10.0 mi SW 15.0 mph 27.6 mph N/A   Mostly Cloudy
5:19 PM 33.8 °F 25.3 °F 14.0 °F 44% 30.17 in 10.0 mi SW 11.5 mph 23.0 mph N/A   Overcast
5:39 PM 32.0 °F 20.1 °F 17.6 °F 55% 30.18 in 7.0 mi SSW 19.6 mph 39.1 mph N/A   Overcast
5:59 PM 28.4 °F 16.6 °F 24.8 °F 86% 30.20 in 1.0 mi SSW 16.1 mph 31.1 mph N/A Snow Light Snow
6:19 PM 28.4 °F 16.6 °F 26.6 °F 93% 30.21 in 0.2 mi SW 16.1 mph 27.6 mph N/A Snow Snow
6:39 PM 26.6 °F 12.7 °F 26.6 °F 100% 30.21 in 0.2 mi SW 20.7 mph 26.5 mph 0.02 in Snow Light Snow
6:59 PM 26.6 °F 16.8 °F 26.6 °F 100% 30.21 in 0.2 mi SSW 10.4 mph 18.4 mph 0.02 in Snow Snow
7:19 PM 26.6 °F 16.8 °F 26.6 °F 100% 30.21 in 0.2 mi SSW 10.4 mph 18.4 mph 0.01 in Snow Snow
7:39 PM 26.6 °F 16.2 °F 26.6 °F 100% 30.21 in 0.2 mi SSW 11.5 mph 16.1 mph 0.01 in Snow Snow
7:59 PM 26.6 °F 16.8 °F 26.6 °F 100% 30.22 in 0.5 mi SW 10.4 mph - 0.01 in Snow Light Snow
8:19 PM 26.6 °F 15.7 °F 26.6 °F 100% 30.22 in 4.0 mi WSW 12.7 mph - N/A Snow Light Snow
8:39 PM 26.6 °F 19.1 °F 26.6 °F 100% 30.22 in 7.0 mi NW 6.9 mph - N/A Snow Light Snow
8:59 PM 26.6 °F 21.2 °F 26.6 °F 100% 30.23 in 10.0 mi NW 4.6 mph - N/A   Overcast
9:19 PM 26.6 °F - 26.6 °F 100% 30.24 in 2.0 mi Calm Calm - N/A Snow Light Snow
9:39 PM 24.8 °F 16.1 °F 24.8 °F 100% 30.27 in 0.2 mi NNW 8.1 mph - N/A Snow Heavy Snow
9:59 PM 24.8 °F 16.1 °F 23.0 °F 93% 30.25 in 1.8 mi NNE 8.1 mph - 0.04 in Snow Light Snow
10:19 PM 24.8 °F 14.0 °F 23.0 °F 93% 30.25 in 0.5 mi NE 11.5 mph - 0.01 in Fog Light Freezing Fog
10:39 PM 24.8 °F 16.9 °F 23.0 °F 93% 30.25 in 10.0 mi NNE 6.9 mph - 0.01 in   Overcast
10:59 PM 26.6 °F 16.2 °F 21.2 °F 80% 30.26 in 10.0 mi SW 11.5 mph - 0.01 in   Overcast
11:19 PM 24.8 °F 14.0 °F 23.0 °F 93% 30.26 in 4.0 mi SSW 11.5 mph - N/A   Overcast
11:39 PM 24.8 °F 17.9 °F 23.0 °F 93% 30.25 in 10.0 mi SW 5.8 mph - N/A   Overcast
11:59 PM 24.8 °F 16.1 °F 23.0 °F 93% 30.25 in 10.0 mi SW 8.1 mph - N/A   Overcast